Tracking 33190 objects as of 9-Feb-2026
HD Live streaming from Space Station
objects crossing your sky now

STARLINK-3324

Track STARLINK-3324 now!
10-day predictions
STARLINK-3324 is classified as:


NORAD ID: 50814
Int'l Code: 2022-001M
Perigee: 546.0 km
Apogee: 547.8 km
Inclination: 53.2 °
Period: 95.4 minutes
Semi major axis: 6917 km
RCS: Unknown
Launch date: January 6, 2022
Source: United States (US)
Launch site: AIR FORCE EASTERN TEST RANGE (AFETR)
Your satellite tracking list
Your tracking list is empty




NASA's NSSDC Master Catalog

Two Line Element Set (TLE):
1 50814U 22001M   26039.95822308  .00001004  00000-0  81177-4 0  9993
2 50814  53.2178 298.1038 0001280  93.5237 266.5901 15.08833759226072
Source of the keplerian elements: AFSPC